Coldwater, MI

9:54 PM EST on February 09, 2016 (GMT -0500)
Branch County Memorial

Weather History for KOEB - November, 2013

Change the Weather History Date:

Wednesday, November 20, 2013

  Actual Average (KBTL) Record (KBTL)
Temperature  
Mean Temperature 35 °F 37 °F  
Max Temperature 42 °F 46 °F 60 °F (2003)
Min Temperature 28 °F 29 °F 21 °F (1996)
Degree Days  
Heating Degree Days 30 28  
Month to date heating degree days 473  
Since 1 July heating degree days 1135  
Cooling Degree Days 0 0  
Month to date cooling degree days 0  
Year to date cooling degree days 578  
Moisture  
Dew Point 27 °F    
Average Humidity 71    
Maximum Humidity 83    
Minimum Humidity 50    
Precipitation  
Precipitation 0.00 in 0.09 in 0.04 in (2007)
Month to date precipitation 1.96  
Year to date precipitation 30.29  
Sea Level Pressure  
Sea Level Pressure 30.28 in    
Wind  
Wind Speed 6 mph (SE)    
Max Wind Speed 15 mph    
Max Gust Speed 22 mph    
Visibility 10 miles    
Events      
T = Trace of Precipitation, MM = Missing Value Source: NWS Daily Summary

Daily Weather History Graph

Daily Weather History Graph

Search for Another Location

Airport or City:

Trip Planner

Search our weather history database for the weather conditions in past years. The results will help you decide how hot, cold, wet, or windy it might be!

Date:

Astronomy

Nov. 20, 2013 Rise Set
Actual Time 7:36 AM EST 5:15 PM EST
Civil Twilight 7:05 AM EST 5:45 PM EST
Nautical Twilight 6:31 AM EST 6:19 PM EST
Astronomical Twilight 5:58 AM EST 6:52 PM EST
Moon 7:57 PM EST (11/20) 10:01 AM EST (11/20)
Length of Visible Light 10h 39m
Length of Day
9h 38m
Waning Gibbous, 91% of the Moon is Illuminated
Nov 20
Waning Gibbous
Nov 25
Last Quarter
Dec 2
New
Dec 9
First Quarter
Dec 17
Full

Hourly Weather History & Observations

Time (EST) Temp. Windchill Dew Point Humidity Pressure Visibility Wind Dir Wind Speed Gust Speed Precip Events Conditions
12:15 AM 30.7 °F 27.3 °F 24.6 °F 78% 30.36 in 10.0 mi SE 3.5 mph - N/A   Clear
12:34 AM 30.2 °F 26.7 °F 24.3 °F 79% 30.36 in 10.0 mi SE 3.5 mph - N/A   Clear
12:55 AM 30.2 °F - 24.1 °F 78% 30.36 in 10.0 mi Calm Calm - N/A   Clear
1:15 AM 29.8 °F - 24.3 °F 80% 30.36 in 10.0 mi Calm Calm - N/A   Clear
1:34 AM 29.7 °F 24.7 °F 24.3 °F 80% 30.36 in 10.0 mi SE 4.6 mph - N/A   Clear
1:55 AM 29.3 °F - 24.3 °F 81% 30.36 in 10.0 mi Calm Calm - N/A   Clear
2:15 AM 29.1 °F - 24.3 °F 82% 30.36 in 10.0 mi Calm Calm - N/A   Clear
2:34 AM 29.3 °F 25.6 °F 24.3 °F 81% 30.36 in 10.0 mi SE 3.5 mph - N/A   Clear
2:55 AM 29.1 °F 24.1 °F 24.4 °F 83% 30.36 in 10.0 mi ESE 4.6 mph - N/A   Clear
3:15 AM 29.5 °F 23.4 °F 24.6 °F 82% 30.36 in 10.0 mi SE 5.8 mph - N/A   Clear
3:35 AM 29.7 °F 22.8 °F 24.6 °F 81% 30.36 in 10.0 mi SE 6.9 mph - N/A   Clear
3:55 AM 29.5 °F 24.5 °F 24.4 °F 81% 30.36 in 10.0 mi SE 4.6 mph - N/A   Clear
4:15 AM 29.1 °F 25.4 °F 24.3 °F 82% 30.36 in 10.0 mi SSE 3.5 mph - N/A   Clear
4:35 AM 28.4 °F 24.6 °F 23.9 °F 83% 30.36 in 10.0 mi ESE 3.5 mph - N/A   Clear
4:55 AM 28.4 °F 24.6 °F 23.9 °F 83% 30.36 in 10.0 mi SE 3.5 mph - N/A   Clear
5:15 AM 28.4 °F 24.6 °F 23.9 °F 83% 30.36 in 10.0 mi SE 3.5 mph - N/A   Clear
5:35 AM 28.4 °F 24.6 °F 23.9 °F 83% 30.36 in 10.0 mi SE 3.5 mph - N/A   Clear
5:55 AM 28.8 °F 23.7 °F 23.9 °F 82% 30.36 in 10.0 mi SE 4.6 mph - N/A   Clear
6:14 AM 29.3 °F 23.2 °F 23.9 °F 80% 30.36 in 10.0 mi SE 5.8 mph - N/A   Clear
6:35 AM 29.3 °F 24.3 °F 23.9 °F 80% 30.37 in 10.0 mi SE 4.6 mph - N/A   Clear
6:55 AM 29.3 °F 24.3 °F 23.7 °F 80% 30.37 in 10.0 mi SE 4.6 mph - N/A   Clear
7:14 AM 29.3 °F 22.3 °F 23.9 °F 80% 30.36 in 10.0 mi ESE 6.9 mph - N/A   Clear
7:35 AM 29.8 °F 23.0 °F 23.9 °F 79% 30.37 in 10.0 mi SE 6.9 mph - N/A   Clear
7:55 AM 30.0 °F 24.1 °F 24.3 °F 79% 30.37 in 10.0 mi SE 5.8 mph - N/A   Clear
8:14 AM 30.9 °F 25.2 °F 24.6 °F 77% 30.36 in 10.0 mi SE 5.8 mph - N/A   Clear
8:35 AM 32.0 °F 24.2 °F 25.5 °F 77% 30.36 in 10.0 mi SE 9.2 mph - N/A   Clear
8:55 AM 32.2 °F 24.4 °F 26.1 °F 78% 30.36 in 10.0 mi SE 9.2 mph - N/A   Clear
9:15 AM 33.3 °F 24.6 °F 26.4 °F 76% 30.36 in 10.0 mi SE 11.5 mph - N/A   Clear
9:35 AM 34.0 °F 26.0 °F 26.4 °F 74% 30.36 in 10.0 mi SE 10.4 mph - N/A   Clear
9:55 AM 35.1 °F 25.9 °F 26.4 °F 71% 30.35 in 10.0 mi ESE 13.8 mph 17.3 mph N/A   Clear
10:15 AM 35.2 °F 27.1 °F 26.6 °F 71% 30.35 in 10.0 mi SE 11.5 mph 18.4 mph N/A   Clear
10:35 AM 35.6 °F 26.6 °F 26.6 °F 70% 30.34 in 10.0 mi SE 13.8 mph 21.9 mph N/A   Clear
10:55 AM 36.1 °F 26.9 °F 26.1 °F 67% 30.33 in 10.0 mi ESE 15.0 mph 21.9 mph N/A   Clear
11:15 AM 37.0 °F 28.9 °F 25.7 °F 64% 30.32 in 10.0 mi ESE 12.7 mph 21.9 mph N/A   Clear
11:35 AM 38.1 °F 30.7 °F 25.9 °F 61% 30.31 in 10.0 mi ESE 11.5 mph 20.7 mph N/A   Clear
11:54 AM 38.7 °F 31.4 °F 25.2 °F 58% 30.30 in 10.0 mi SE 11.5 mph 19.6 mph N/A   Clear
12:15 PM 38.5 °F 32.7 °F 25.0 °F 58% 30.29 in 10.0 mi ESE 8.1 mph - N/A   Clear
12:35 PM 39.9 °F 33.4 °F 26.1 °F 58% 30.28 in 10.0 mi SE 10.4 mph 17.3 mph N/A   Clear
12:54 PM 39.9 °F 33.9 °F 25.2 °F 56% 30.28 in 10.0 mi SE 9.2 mph 17.3 mph N/A   Clear
1:15 PM 40.5 °F 35.1 °F 25.0 °F 54% 30.26 in 10.0 mi SE 8.1 mph - N/A   Clear
1:35 PM 41.9 °F 36.3 °F 26.1 °F 53% 30.26 in 10.0 mi SE 9.2 mph - N/A   Clear
1:54 PM 41.9 °F 34.6 °F 24.8 °F 51% 30.26 in 10.0 mi SE 13.8 mph 18.4 mph N/A   Clear
2:15 PM 42.4 °F 36.1 °F 25.0 °F 50% 30.25 in 10.0 mi SE 11.5 mph 18.4 mph N/A   Clear
2:35 PM 42.1 °F 36.1 °F 25.7 °F 52% 30.23 in 10.0 mi SE 10.4 mph - N/A   Clear
2:54 PM 42.6 °F 37.2 °F 26.1 °F 52% 30.22 in 10.0 mi ESE 9.2 mph 16.1 mph N/A   Clear
3:15 PM 42.8 °F 36.6 °F 26.4 °F 52% 30.21 in 10.0 mi ESE 11.5 mph - N/A   Clear
3:35 PM 41.4 °F 35.2 °F 26.6 °F 56% 30.21 in 10.0 mi ESE 10.4 mph - N/A   Clear
3:55 PM 41.9 °F 35.9 °F 27.0 °F 55% 30.21 in 10.0 mi SSE 10.4 mph - N/A   Clear
4:15 PM 40.8 °F 34.5 °F 27.5 °F 59% 30.21 in 10.0 mi SE 10.4 mph 16.1 mph N/A   Clear
4:35 PM 40.5 °F 35.1 °F 28.0 °F 61% 30.21 in 10.0 mi SE 8.1 mph - N/A   Clear
4:55 PM 39.6 °F 33.5 °F 28.4 °F 64% 30.20 in 10.0 mi SE 9.2 mph - N/A   Clear
5:15 PM 39.0 °F 33.4 °F 28.4 °F 66% 30.19 in 10.0 mi ESE 8.1 mph - N/A   Clear
5:35 PM 38.1 °F 34.6 °F 28.9 °F 70% 30.20 in 10.0 mi SE 4.6 mph - N/A   Clear
5:55 PM 37.4 °F 33.8 °F 28.9 °F 71% 30.21 in 10.0 mi SE 4.6 mph - N/A   Clear
6:15 PM 36.9 °F 33.1 °F 28.9 °F 73% 30.21 in 10.0 mi SE 4.6 mph - N/A   Clear
6:35 PM 37.0 °F 32.4 °F 29.3 °F 74% 30.21 in 10.0 mi SE 5.8 mph - N/A   Clear
6:55 PM 37.2 °F 32.6 °F 29.7 °F 74% 30.21 in 10.0 mi SE 5.8 mph - N/A   Clear
7:15 PM 37.8 °F 32.5 °F 30.2 °F 74% 30.21 in 10.0 mi SE 6.9 mph - N/A   Clear
7:35 PM 37.9 °F 33.5 °F 30.2 °F 74% 30.20 in 10.0 mi SSE 5.8 mph - N/A   Clear
7:55 PM 38.3 °F 33.9 °F 30.7 °F 74% 30.20 in 10.0 mi SSE 5.8 mph - N/A   Clear
8:15 PM 38.7 °F 32.4 °F 31.1 °F 74% 30.20 in 10.0 mi SE 9.2 mph - N/A   Clear
8:35 PM 39.0 °F 34.0 °F 31.1 °F 73% 30.20 in 10.0 mi SE 6.9 mph - N/A   Clear
8:55 PM 39.2 °F 33.6 °F 31.5 °F 74% 30.18 in 10.0 mi SE 8.1 mph - N/A   Scattered Clouds
9:14 PM 39.7 °F 34.3 °F 31.8 °F 73% 30.18 in 10.0 mi SE 8.1 mph - N/A   Mostly Cloudy
9:35 PM 40.1 °F 36.1 °F 32.0 °F 73% 30.18 in 10.0 mi SSE 5.8 mph - N/A   Overcast
9:55 PM 40.5 °F 35.1 °F 32.0 °F 72% 30.18 in 10.0 mi SSE 8.1 mph - N/A   Overcast
10:14 PM 40.8 °F 35.6 °F 32.0 °F 71% 30.18 in 10.0 mi SSE 8.1 mph - N/A   Overcast
10:35 PM 41.0 °F 35.2 °F 32.0 °F 70% 30.18 in 10.0 mi SSE 9.2 mph - N/A   Overcast
10:55 PM 41.2 °F 35.5 °F 32.0 °F 70% 30.20 in 10.0 mi South 9.2 mph - N/A   Overcast
11:14 PM 42.1 °F 38.4 °F 32.0 °F 67% 30.21 in 10.0 mi South 5.8 mph - N/A   Overcast
11:35 PM 41.5 °F 38.6 °F 32.0 °F 69% 30.21 in 10.0 mi SSE 4.6 mph - N/A   Overcast
11:55 PM 41.0 °F 39.0 °F 32.4 °F 71% 30.21 in 10.0 mi SSE 3.5 mph - N/A   Overcast